Other Surface Observations
Issued by NWS

Home | Current Version | Previous Version | Text Only | Print | Product List | Glossary On
Versions: 1 2 3 4 5 6 7 8 9 10 11 12 13 14 15 16 17 18 19 20 21 22 23 24 25 26 27 28 29 30 31 32 33 34 35 36 37 38 39 40 41 42 43 44 45 46 47 48 49 50
000
SXUS52 KTAE 211018
OSOTAE
OSOTAE
North Florida/South Alabama/Southwest Georgia Weather Roundup
National Weather Service Tallahassee Florida
600 AM EDT SUN SEP 21 2014

Note: "fair" indicates few or no clouds below 12,000 feet with no
significant weather and/or obstructions to visibility.

!FLZ017-115-028-034-025-211100
...North Florida...

CITY           SKY/WX    TMP DP  RH WIND       PRES   REMARKS
TALLAHASSEE    PTCLDY    62  62 100 CALM      29.99R
APALACHICOLA   CLEAR     72  68  87 NE8       29.97R
PERRY          CLEAR     64  64 100 CALM      29.98R
CROSS CITY       N/A     66  65  96 CALM      29.96R
HOMERVILLE     FAIR      64  63  94 CALM      29.99R
JACKSONVILLE   CLEAR     65  64  97 CALM      29.96R
$$

!FLZ112-006-005-002-011-211100
...Florida Panhandle...

CITY           SKY/WX    TMP DP  RH WIND       PRES   REMARKS
MARIANNA       CLEAR     66  66 100 CALM      30.00R
BONIFAY        FAIR      65  64  97 MISG      30.01R FOG
PANAMA CITY NW FAIR      68  65  90 CALM      29.98R
TYNDALL AFB    CLEAR     70  70  99 NE6       29.99R
TYND DRONE APT FAIR      70  69  97 MISG      29.97R
DE FUNIAK SPR  FAIR      66  65  97 CALM      30.01R
EGLIN AFB      PTCLDY    69  66  90 N5        29.99R
DESTIN         CLEAR     73  69  87 N3        29.99R
HURLBURT       CLEAR     68  63  84 NE5       29.98R
CRESTVIEW      CLEAR     66  65  96 CALM      30.02R
PENSACOLA      PTCLDY    71  66  84 NE5       29.99R
$$

!ALZ063-066-211100
...South Alabama...

CITY           SKY/WX    TMP DP  RH WIND       PRES   REMARKS
DOTHAN         FOG       63  63 100 CALM      30.05R VSB 1/2
OZARK CAIRNS   CLEAR     65  64  94 N2        30.01S
FT RUCKER HELI PTCLDY    63  62  97 CALM      30.00S
RUCKER HELI 3  FAIR      65  65  99 NE1       30.03S FOG
RUCKER HELI 2  FAIR      63  62  97 CALM      30.01S
FLORALA APT    PTCLDY    68  65  90 CALM      30.03R
ANDALUSIA      CLEAR     69  65  86 CALM      30.01R
TROY           CLEAR     62  60  93 CALM      30.02S
EUFALA         FAIR      62  60  93 CALM      30.00S FOG
MOBILE         CLEAR     69  66  90 NE9       30.00S
$$

!GAZ120>161-211100
...Southwest and South Central Georgia...

CITY           SKY/WX    TMP DP  RH WIND       PRES   REMARKS
THOMASVILLE    FAIR      64  64 100 CALM      30.01S
BAINBRIDGE     CLEAR     66  64  94 CALM      30.00S
MOODY AFB      CLEAR     64  62  94 N6        29.99R
VALDOSTA       CLEAR     63  60  90 CALM      29.99R
MOULTRIE       CLEAR     64  63  94 CALM      30.01R
BLAKELY        CLEAR     64  63  94 CALM        N/A
ALBANY         CLEAR     64  62  93 CALM      30.02S
TIFTON         FAIR      62  61  98 CALM      30.00S FOG
FITZGERALD       N/A     63  60  91 CALM      30.03R FOG
CORDELE        FAIR      64  62  94 CALM      30.02R
AMERICUS       FAIR      61  61 100 CALM      30.03R FOG
$$

!GMZ750-755-770-775-211100
...Coastal and Buoy Obs...

STATION/POSITION TIME  TEMP    WIND        PRES    VSBY  WAVE
                       AIR SEA DIR/SP/G                  HT/PER
                 (UTC) (F)     (DEG/KT/KT) (MB)    (MI)  (FT/S)
KEATON BEACH     1000   67      20/  2/  3 1015.1R
CEDAR KEY        0958   71      40/  7/ 11 1015.0R
C TOWER          1000   78      80/ 13/ 15 1014.4R
APALACHICOLA BUO 1000   80 84   80/ 14/ 17 1013.5R         3/ 5
PANAMA CITY BUOY 0908   81 84   90/ 12/ 16 1013.1          3/ 4
MOBILE BUOY      0903   81 84   80/ 10/ 14 1014.3R         3/ 6
ORANGE BCH AL BU 1000   79 85   40/ 17/ 19 1014.6R         3/ 5
$$



USA.gov is the U.S. government's official web portal to all federal, state and local government web resources and services.